Weather Roundup
Issued by NWS Chicago, IL

Home | Current Version | Previous Version | Graphics & Text | Print | Product List | Glossary On
Versions: 1 2 3 4 5 6 7 8 9 10 11 12 13 14 15 16 17 18 19 20 21 22 23 24 25 26 27 28 29 30 31 32 33 34 35 36 37 38 39 40 41 42 43 44 45 46 47 48 49 50
000
NZUS59 KLOT 251608
HRRLOT

CHICAGO AREA WEATHER ROUNDUP
NATIONAL WEATHER SERVICE CHICAGO/ROMEOVILLE IL
1100 AM CDT TUE APR 25 2017

NOTE: "FAIR" INDICATES FEW OR NO CLOUDS BELOW 12,000 FEET WITH NO
SIGNIFICANT WEATHER AND/OR OBSTRUCTIONS TO VISIBILITY.

* THESE STATIONS ARE NOT UNDER NWS QUALITY CONTROL. THEY ALSO MAY NOT
  REPORT WEATHER SUCH AS PRECIPITATION OR FOG.

ILZ005-006-012>014-019>023-251700-
NORTHEAST ILLINOIS

CITY           SKY/WX    TMP DP  RH WIND       PRES   REMARKS
OHARE          PTSUNNY   71  47  42 S13       29.69S
MIDWAY         PTSUNNY   70  49  47 SE9       29.70F
AURORA         PTSUNNY   70  49  47 S17       29.69F
LANSING*       SUNNY     70  56  62 SE7       29.71S
JOLIET*        PTSUNNY   72  52  49 S6        29.69F
WAUKEGAN       SUNNY     64  52  64 SE10      29.68F
DUPAGE AIRPORT MOSUNNY   70  52  52 S10       29.68F
WHEELING       SUNNY     70  49  47 S13       29.70F
KANKAKEE*      SUNNY     76  49  39 S9        29.71F
MORRIS*        MOSUNNY   73  48  41 S12G21    29.67F
LEWIS AIRPORT* MOSUNNY   69  55  59 S12       29.70S
NORTHERLY ISL    N/A     62  51  67 E9          N/A
$$

WIZ051-052-058>065-066-070>072-251700-
SOUTHEAST WISCONSIN

CITY           SKY/WX    TMP DP  RH WIND       PRES   REMARKS
MILWAUKEE      MOSUNNY   64  51  62 SE9       29.68S
KENOSHA*       SUNNY     69  51  52 S10       29.68F
RACINE*        SUNNY     60  49  66 S12       29.70F
WAUKESHA       SUNNY     66  46  48 SE12G18   29.68S
WEST BEND      SUNNY     64  46  52 S8        29.67S
$$

INZ001>003-010>013-019-020-251700-
NORTHWEST INDIANA

CITY           SKY/WX    TMP DP  RH WIND       PRES   REMARKS
GARY*          MOSUNNY   70  48  46 SE8       29.72S
MICHIGAN CITY* NOT AVBL
RENSSELAER*    NOT AVBL
VALPARAISO     SUNNY     71  54  54 S10       29.74S
$$

LMZ740>746-251700-
SOUTHERN LAKE MICHIGAN

STATION/POSITION TIME  SKY/WX   TEMP WIND        PRES    VSBY
                                AIR  DIR/SP/G
                 (UTC)          (F)  (DEG/KT/KT) (MB)    (MI)
HARRISON CRIB    1530            62  160/ 15/ 17   N/A
BURNHAM HARBOR   1600            63  110/  8/ 10   N/A
CALUMET HARBOR   1548            68  150/  9/ 17 1005.6S
BURNS HARBOR     1540            68  170/  9/ 18 1007.1S
MICHIGAN CITY    1540            66  170/ 12/ 15   N/A
$$

ABBREVIATIONS USED IN REMARKS
   TC - TEMPERATURE IN CELSIUS
  WCI - WIND CHILL INDEX
   HX - HEAT INDEX
  VSB - VISIBILITY
$$



USA.gov is the U.S. government's official web portal to all federal, state and local government web resources and services.